Location: Dompnac
(44.5644°N, 4.1026°E)
Time: 11:42:41
(UTC+00:00)

Cosmos 1626 - Pass Details

Date: 19 September 2020
Orbit: 490 x 495 km, 82.5° (Epoch: 29 October)

Event Time Altitude Azimuth Distance (km) Brightness Sun altitude
Rises 19:51:47 0° 358° (N) 2,588 6.1 -22.5°
Reaches altitude 10° 19:54:00 10° 5° (N) 1,699 5.0 -22.8°
Enters shadow 19:55:36 22° 19° (NNE) 1,111 3.9 -23.1°
